| time (UTC) | temp F | wind direction | speed MPH | gust MPH | rain 1hr in | rain 24hr in | rain mn in | humidity % | barometer mb |
| 20260505125003 | 68 | 200 | 8.0 | 23.0 | 0.00 | 0.20 | 0.20 | 57 | 1002.1 |
| 20260505124503 | 68 | 202 | 8.0 | 23.0 | 0.00 | 0.20 | 0.20 | 57 | 1002.1 |
| 20260505124024 | 68 | 206 | 8.0 | 18.0 | 0.00 | 0.20 | 0.20 | 57 | 1002.1 |
| 20260505123503 | 67 | 202 | 8.0 | 21.0 | 0.00 | 0.20 | 0.20 | 57 | 1002.1 |
| 20260505123003 | 67 | 205 | 7.0 | 18.0 | 0.00 | 0.20 | 0.20 | 58 | 1002.2 |
| 20260505122503 | 67 | 203 | 6.0 | 16.0 | 0.00 | 0.20 | 0.20 | 58 | 1002.1 |
| 20260505122003 | 67 | 203 | 6.0 | 16.0 | 0.00 | 0.20 | 0.20 | 58 | 1002.2 |
| 20260505121503 | 67 | 199 | 7.0 | 19.0 | 0.00 | 0.20 | 0.20 | 58 | 1002.2 |
| 20260505121003 | 67 | 200 | 7.0 | 21.0 | 0.00 | 0.20 | 0.20 | 58 | 1002.1 |
| 20260505120524 | 67 | 202 | 7.0 | 21.0 | 0.00 | 0.20 | 0.20 | 58 | 1002.0 |
| 20260505120004 | 67 | 201 | 7.0 | 15.0 | 0.00 | 0.20 | 0.20 | 58 | 1002.0 |
| 20260505115524 | 67 | 200 | 6.0 | 16.0 | 0.00 | 0.20 | 0.20 | 58 | 1001.9 |
| 20260505115003 | 67 | 204 | 5.0 | 16.0 | 0.00 | 0.20 | 0.20 | 59 | 1001.8 |
| 20260505114524 | 67 | 202 | 6.0 | 15.0 | 0.00 | 0.20 | 0.20 | 59 | 1001.7 |
| 20260505114003 | 67 | 197 | 6.0 | 13.0 | 0.00 | 0.20 | 0.20 | 59 | 1001.8 |
| 20260505113503 | 67 | 199 | 7.0 | 19.0 | 0.00 | 0.20 | 0.20 | 59 | 1001.7 |
| 20260505113003 | 66 | 194 | 7.0 | 19.0 | 0.00 | 0.20 | 0.20 | 59 | 1001.7 |
| 20260505112524 | 66 | 195 | 7.0 | 15.0 | 0.00 | 0.20 | 0.20 | 60 | 1001.7 |
| 20260505112024 | 66 | 196 | 7.0 | 16.0 | 0.00 | 0.20 | 0.20 | 60 | 1001.7 |
| 20260505111503 | 66 | 190 | 7.0 | 17.0 | 0.00 | 0.20 | 0.20 | 60 | 1001.7 |
| 20260505111003 | 66 | 189 | 6.0 | 17.0 | 0.00 | 0.20 | 0.20 | 60 | 1001.5 |
| 20260505110503 | 66 | 195 | 7.0 | 18.0 | 0.00 | 0.20 | 0.20 | 60 | 1001.4 |
| 20260505102024 | 64 | 183 | 7.0 | 19.0 | 0.00 | 0.20 | 0.20 | 64 | 1000.9 |
| 20260505101503 | 64 | 185 | 7.0 | 19.0 | 0.00 | 0.20 | 0.20 | 64 | 1000.8 |
| 20260505101024 | 64 | 186 | 7.0 | 18.0 | 0.00 | 0.20 | 0.20 | 64 | 1000.7 |
| 20260505100503 | 64 | 191 | 7.0 | 17.0 | 0.00 | 0.20 | 0.20 | 64 | 1000.8 |
| 20260505100003 | 64 | 187 | 8.0 | 17.0 | 0.00 | 0.20 | 0.20 | 64 | 1000.8 |
| 20260505095503 | 64 | 185 | 7.0 | 19.0 | 0.00 | 0.20 | 0.20 | 65 | 1000.8 |
| 20260505095003 | 64 | 188 | 7.0 | 21.0 | 0.00 | 0.20 | 0.20 | 66 | 1000.8 |
| 20260505094503 | 64 | 179 | 8.0 | 22.0 | 0.00 | 0.20 | 0.20 | 66 | 1000.8 |
| 20260505094003 | 64 | 175 | 7.0 | 26.0 | 0.00 | 0.20 | 0.20 | 66 | 1000.8 |
| 20260505093503 | 63 | 183 | 6.0 | 26.0 | 0.00 | 0.20 | 0.20 | 67 | 1000.8 |
| 20260505093024 | 63 | 180 | 6.0 | 14.0 | 0.00 | 0.20 | 0.20 | 68 | 1000.8 |
| 20260505092503 | 63 | 171 | 6.0 | 14.0 | 0.00 | 0.20 | 0.20 | 68 | 1000.7 |
| 20260505092003 | 62 | 170 | 6.0 | 12.0 | 0.00 | 0.20 | 0.20 | 70 | 1000.7 |
| 20260505091503 | 62 | 168 | 6.0 | 15.0 | 0.00 | 0.20 | 0.20 | 70 | 1000.6 |
| 20260505091003 | 62 | 173 | 6.0 | 15.0 | 0.00 | 0.20 | 0.20 | 71 | 1000.5 |
| 20260505090524 | 62 | 189 | 8.0 | 15.0 | 0.00 | 0.20 | 0.20 | 72 | 1000.7 |
| 20260505090003 | 61 | 184 | 7.0 | 13.0 | 0.00 | 0.20 | 0.20 | 73 | 1000.7 |
| 20260505085503 | 61 | 168 | 5.0 | 12.0 | 0.00 | 0.20 | 0.20 | 74 | 1000.7 |
| 20260505085003 | 61 | 172 | 4.0 | 12.0 | 0.00 | 0.20 | 0.20 | 75 | 1000.8 |
| 20260505084503 | 60 | 176 | 3.0 | 10.0 | 0.00 | 0.20 | 0.20 | 75 | 1000.8 |
| 20260505084003 | 60 | 182 | 4.0 | 11.0 | 0.00 | 0.20 | 0.20 | 76 | 1001.0 |
| 20260505083524 | 60 | 187 | 4.0 | 11.0 | 0.00 | 0.20 | 0.20 | 77 | 1001.0 |
| 20260505083024 | 60 | 188 | 3.0 | 10.0 | 0.00 | 0.20 | 0.20 | 79 | 1000.9 |
| 20260505082503 | 59 | 183 | 3.0 | 9.0 | 0.00 | 0.20 | 0.20 | 80 | 1000.7 |
| 20260505082003 | 59 | 179 | 5.0 | 15.0 | 0.00 | 0.20 | 0.20 | 82 | 1000.8 |
| 20260505081524 | 58 | 174 | 6.0 | 15.0 | 0.00 | 0.20 | 0.20 | 86 | 1000.9 |
| 20260505081003 | 56 | 167 | 4.0 | 13.0 | 0.00 | 0.20 | 0.20 | 91 | 1001.1 |
| 20260505080503 | 55 | 168 | 2.0 | 9.0 | 0.00 | 0.20 | 0.20 | 91 | 1001.2 |
| 20260505080003 | 54 | 182 | 0.0 | 4.0 | 0.00 | 0.20 | 0.20 | 91 | 1001.2 |
| 20260505075503 | 54 | 185 | 0.0 | 1.0 | 0.00 | 0.20 | 0.20 | 90 | 1001.3 |
| 20260505075003 | 54 | 0 | 0.0 | 0.0 | 0.00 | 0.20 | 0.20 | 90 | 1001.3 |
| 20260505074503 | 54 | 185 | 0.0 | 2.0 | 0.00 | 0.20 | 0.20 | 90 | 1001.2 |
| 20260505074003 | 54 | 185 | 0.0 | 2.0 | 0.00 | 0.20 | 0.20 | 90 | 1001.2 |
| 20260505073503 | 54 | 0 | 0.0 | 0.0 | 0.00 | 0.20 | 0.20 | 90 | 1001.3 |
| 20260505073003 | 54 | 0 | 0.0 | 0.0 | 0.00 | 0.20 | 0.20 | 89 | 1001.4 |
| 20260505072503 | 55 | 0 | 0.0 | 0.0 | 0.00 | 0.20 | 0.20 | 89 | 1001.4 |
| 20260505072024 | 55 | 0 | 0.0 | 0.0 | 0.00 | 0.20 | 0.20 | 89 | 1001.5 |
| 20260505071503 | 55 | 0 | 0.0 | 0.0 | 0.00 | 0.20 | 0.20 | 89 | 1001.5 |
| 20260505071003 | 55 | 185 | 0.0 | 1.0 | 0.00 | 0.20 | 0.20 | 89 | 1001.8 |
| 20260505070503 | 55 | 185 | 1.0 | 2.0 | 0.00 | 0.20 | 0.20 | 89 | 1001.8 |
| 20260505070003 | 55 | 185 | 1.0 | 3.0 | 0.01 | 0.20 | 0.20 | 89 | 1002.0 |
| 20260505065524 | 55 | 185 | 1.0 | 3.0 | 0.01 | 0.20 | 0.20 | 88 | 1002.1 |
| 20260505065003 | 55 | 185 | 1.0 | 3.0 | 0.10 | 0.20 | 0.20 | 88 | 1002.4 |
| 20260505064503 | 56 | 185 | 0.0 | 3.0 | 0.14 | 0.20 | 0.20 | 88 | 1002.5 |
| 20260505064003 | 56 | 185 | 0.0 | 2.0 | 0.20 | 0.20 | 0.20 | 88 | 1002.4 |
| 20260505063503 | 56 | 185 | 0.0 | 2.0 | 0.20 | 0.20 | 0.20 | 88 | 1002.3 |
| 20260505063003 | 56 | 184 | 1.0 | 3.0 | 0.20 | 0.20 | 0.20 | 88 | 1002.5 |
| 20260505062503 | 56 | 184 | 2.0 | 5.0 | 0.20 | 0.20 | 0.20 | 88 | 1002.5 |
| 20260505062003 | 56 | 183 | 3.0 | 6.0 | 0.20 | 0.20 | 0.20 | 87 | 1002.7 |
| 20260505061503 | 56 | 176 | 4.0 | 8.0 | 0.20 | 0.20 | 0.20 | 87 | 1002.6 |
| 20260505061003 | 56 | 180 | 3.0 | 8.0 | 0.20 | 0.20 | 0.20 | 87 | 1002.4 |
| 20260505060503 | 56 | 199 | 3.0 | 7.0 | 0.20 | 0.20 | 0.20 | 86 | 1002.7 |
| 20260505060003 | 57 | 214 | 4.0 | 16.0 | 0.19 | 0.19 | 0.19 | 85 | 1002.7 |
| 20260505055503 | 57 | 219 | 6.0 | 16.0 | 0.19 | 0.19 | 0.19 | 84 | 1002.9 |
| 20260505055024 | 58 | 226 | 7.0 | 16.0 | 0.10 | 0.10 | 0.11 | 81 | 1003.4 |
| 20260505054503 | 60 | 228 | 7.0 | 17.0 | 0.06 | 0.06 | 0.06 | 76 | 1003.9 |
| 20260505054024 | 62 | 226 | 7.0 | 17.0 | 0.00 | 0.00 | 0.00 | 70 | 1003.6 |
| 20260505053503 | 62 | 217 | 6.0 | 17.0 | 0.00 | 0.00 | 0.00 | 69 | 1003.1 |
| 20260505053003 | 62 | 213 | 5.0 | 15.0 | 0.00 | 0.00 | 0.00 | 69 | 1002.8 |
| 20260505052503 | 62 | 219 | 5.0 | 14.0 | 0.00 | 0.00 | 0.00 | 68 | 1002.5 |
| 20260505052003 | 63 | 224 | 5.0 | 18.0 | 0.00 | 0.00 | 0.00 | 68 | 1002.5 |
| 20260505051503 | 63 | 223 | 7.0 | 18.0 | 0.00 | 0.00 | 0.00 | 67 | 1002.6 |
| 20260505051003 | 63 | 222 | 7.0 | 15.0 | 0.00 | 0.00 | 0.00 | 65 | 1002.7 |
| 20260505050524 | 63 | 224 | 6.0 | 15.0 | 0.00 | 0.00 | 0.00 | 65 | 1002.7 |
| 20260505041503 | 63 | 184 | 5.0 | 12.0 | 0.00 | 0.00 | 0.00 | 69 | 1002.5 |
| 20260505041003 | 63 | 195 | 6.0 | 12.0 | 0.00 | 0.00 | 0.00 | 68 | 1002.4 |
| 20260505040503 | 64 | 192 | 6.0 | 16.0 | 0.00 | 0.00 | 0.00 | 66 | 1002.6 |
| 20260505040004 | 64 | 175 | 5.0 | 16.0 | 0.00 | 0.00 | 0.00 | 65 | 1002.9 |
| 20260505035503 | 64 | 168 | 5.0 | 13.0 | 0.00 | 0.00 | 0.00 | 64 | 1002.5 |
| 20260505035024 | 64 | 168 | 4.0 | 11.0 | 0.00 | 0.00 | 0.00 | 64 | 1002.4 |
| 20260505034503 | 64 | 166 | 5.0 | 14.0 | 0.00 | 0.00 | 0.00 | 63 | 1002.2 |
| 20260505034024 | 64 | 170 | 5.0 | 14.0 | 0.00 | 0.00 | 0.00 | 63 | 1002.2 |
| 20260505033503 | 64 | 182 | 6.0 | 15.0 | 0.00 | 0.00 | 0.00 | 63 | 1002.2 |
| 20260505033003 | 64 | 186 | 6.0 | 15.0 | 0.00 | 0.00 | 0.00 | 62 | 1002.3 |
| 20260505032503 | 64 | 176 | 5.0 | 14.0 | 0.00 | 0.00 | 0.00 | 62 | 1002.4 |
| 20260505032003 | 64 | 170 | 5.0 | 12.0 | 0.00 | 0.00 | 0.00 | 62 | 1002.3 |
| 20260505031503 | 64 | 173 | 6.0 | 15.0 | 0.00 | 0.00 | 0.00 | 61 | 1002.4 |
| 20260505031003 | 65 | 171 | 7.0 | 20.0 | 0.00 | 0.00 | 0.00 | 61 | 1002.5 |
| 20260505030503 | 65 | 175 | 6.0 | 20.0 | 0.00 | 0.00 | 0.00 | 59 | 1002.6 |
| 20260505030003 | 65 | 185 | 5.0 | 13.0 | 0.00 | 0.00 | 0.00 | 58 | 1002.5 |
| 20260505025503 | 65 | 182 | 4.0 | 11.0 | 0.00 | 0.00 | 0.00 | 58 | 1002.7 |
| 20260505025004 | 65 | 182 | 3.0 | 11.0 | 0.00 | 0.00 | 0.00 | 59 | 1002.8 |
| 20260505024503 | 64 | 180 | 3.0 | 10.0 | 0.00 | 0.00 | 0.00 | 58 | 1002.6 |
| 20260505024003 | 64 | 186 | 3.0 | 8.0 | 0.00 | 0.00 | 0.00 | 58 | 1002.7 |
| 20260505023503 | 64 | 190 | 3.0 | 8.0 | 0.00 | 0.00 | 0.00 | 58 | 1002.7 |
| 20260505023003 | 63 | 187 | 2.0 | 7.0 | 0.00 | 0.00 | 0.00 | 59 | 1002.8 |
| 20260505022524 | 63 | 196 | 1.0 | 7.0 | 0.00 | 0.00 | 0.00 | 59 | 1002.9 |
| 20260505022003 | 63 | 214 | 2.0 | 7.0 | 0.00 | 0.00 | 0.00 | 57 | 1002.9 |
| 20260505021503 | 62 | 226 | 3.0 | 9.0 | 0.00 | 0.00 | 0.00 | 58 | 1003.0 |
| 20260505021024 | 60 | 224 | 3.0 | 9.0 | 0.00 | 0.00 | 0.00 | 60 | 1003.3 |
| 20260505020503 | 57 | 213 | 1.0 | 5.0 | 0.00 | 0.00 | 0.00 | 64 | 1003.0 |
| 20260505020003 | 57 | 0 | 0.0 | 0.0 | 0.00 | 0.00 | 0.00 | 63 | 1002.7 |
| 20260505015503 | 57 | 0 | 0.0 | 0.0 | 0.00 | 0.00 | 0.00 | 63 | 1002.5 |
| 20260505015003 | 57 | 0 | 0.0 | 0.0 | 0.00 | 0.00 | 0.00 | 61 | 1002.5 |
| 20260505014503 | 57 | 0 | 0.0 | 0.0 | 0.00 | 0.00 | 0.00 | 61 | 1002.6 |
| 20260505014003 | 57 | 0 | 0.0 | 0.0 | 0.00 | 0.00 | 0.00 | 61 | 1002.6 |
| 20260505013503 | 57 | 0 | 0.0 | 0.0 | 0.00 | 0.00 | 0.00 | 60 | 1002.5 |
| 20260505013003 | 58 | 0 | 0.0 | 0.0 | 0.00 | 0.00 | 0.00 | 58 | 1002.6 |
| 20260505012503 | 58 | 0 | 0.0 | 0.0 | 0.00 | 0.00 | 0.00 | 57 | 1002.6 |
| 20260505012003 | 58 | 0 | 0.0 | 0.0 | 0.00 | 0.00 | 0.00 | 56 | 1002.7 |
| 20260505011506 | 59 | 0 | 0.0 | 0.0 | 0.00 | 0.00 | 0.00 | 55 | 1002.7 |
| 20260505011003 | 60 | 0 | 0.0 | 0.0 | 0.00 | 0.00 | 0.00 | 54 | 1002.7 |
| 20260505010503 | 60 | 0 | 0.0 | 0.0 | 0.00 | 0.00 | 0.00 | 54 | 1002.7 |
| 20260505010003 | 61 | 0 | 0.0 | 0.0 | 0.00 | 0.00 | 0.00 | 52 | 1002.8 |
| 20260505005503 | 61 | 213 | 0.0 | 2.0 | 0.00 | 0.00 | 0.00 | 50 | 1002.6 |
| 20260505005004 | 61 | 213 | 0.0 | 2.0 | 0.00 | 0.00 | 0.00 | 49 | 1002.6 |
| 20260505004503 | 62 | 213 | 1.0 | 2.0 | 0.00 | 0.00 | 0.00 | 49 | 1002.8 |
| 20260505004024 | 62 | 213 | 1.0 | 3.0 | 0.00 | 0.00 | 0.00 | 48 | 1002.7 |
| 20260505003503 | 62 | 213 | 1.0 | 4.0 | 0.00 | 0.00 | 0.00 | 48 | 1002.8 |
| 20260505003024 | 62 | 214 | 1.0 | 4.0 | 0.00 | 0.00 | 0.00 | 47 | 1002.8 |
| 20260505002503 | 63 | 204 | 1.0 | 5.0 | 0.00 | 0.00 | 0.00 | 47 | 1002.8 |
| 20260505002003 | 63 | 194 | 2.0 | 6.0 | 0.00 | 0.00 | 0.00 | 46 | 1002.8 |
| 20260505001503 | 63 | 193 | 3.0 | 7.0 | 0.00 | 0.00 | 0.00 | 46 | 1002.8 |
| 20260505001003 | 64 | 197 | 3.0 | 7.0 | 0.00 | 0.00 | 0.00 | 45 | 1002.9 |
| 20260505000524 | 64 | 200 | 3.0 | 8.0 | 0.00 | 0.00 | 0.00 | 46 | 1002.9 |
| 20260505000024 | 64 | 197 | 3.0 | 8.0 | 0.00 | 0.00 | 0.00 | 45 | 1002.8 |
| 20260504235503 | 64 | 193 | 2.0 | 5.0 | 0.00 | 0.00 | 0.00 | 46 | 1002.9 |
| 20260504235024 | 65 | 198 | 2.0 | 7.0 | 0.00 | 0.00 | 0.00 | 45 | 1002.9 |
| 20260504234503 | 65 | 199 | 3.0 | 7.0 | 0.00 | 0.00 | 0.00 | 45 | 1002.9 |
| 20260504234003 | 66 | 202 | 3.0 | 7.0 | 0.00 | 0.00 | 0.00 | 45 | 1002.9 |
| 20260504233524 | 66 | 208 | 2.0 | 8.0 | 0.00 | 0.00 | 0.00 | 45 | 1002.9 |
| 20260504233003 | 66 | 211 | 2.0 | 8.0 | 0.00 | 0.00 | 0.00 | 44 | 1002.9 |
| 20260504232503 | 67 | 211 | 3.0 | 8.0 | 0.00 | 0.00 | 0.00 | 45 | 1002.9 |
| 20260504232003 | 67 | 206 | 3.0 | 8.0 | 0.00 | 0.00 | 0.00 | 45 | 1002.9 |
| 20260504231503 | 67 | 213 | 3.0 | 7.0 | 0.00 | 0.00 | 0.00 | 44 | 1002.9 |
| 20260504231003 | 67 | 219 | 3.0 | 10.0 | 0.00 | 0.00 | 0.00 | 45 | 1003.0 |
| 20260504230503 | 67 | 186 | 6.0 | 13.0 | 0.00 | 0.00 | 0.00 | 45 | 1002.9 |
| 20260504230003 | 68 | 178 | 5.0 | 13.0 | 0.00 | 0.00 | 0.00 | 44 | 1003.0 |
| 20260504225503 | 68 | 209 | 3.0 | 13.0 | 0.00 | 0.00 | 0.00 | 44 | 1003.0 |
| 20260504225003 | 68 | 205 | 3.0 | 13.0 | 0.00 | 0.00 | 0.00 | 43 | 1002.9 |
| 20260504224503 | 68 | 208 | 3.0 | 9.0 | 0.00 | 0.00 | 0.00 | 43 | 1003.0 |
| 20260504224024 | 68 | 212 | 3.0 | 9.0 | 0.00 | 0.00 | 0.00 | 43 | 1003.0 |
| 20260504223524 | 69 | 206 | 3.0 | 9.0 | 0.00 | 0.00 | 0.00 | 42 | 1002.9 |
| 20260504223003 | 69 | 213 | 3.0 | 8.0 | 0.00 | 0.00 | 0.00 | 41 | 1002.9 |
| 20260504222503 | 69 | 233 | 3.0 | 10.0 | 0.00 | 0.00 | 0.00 | 40 | 1002.9 |
| 20260504222024 | 69 | 244 | 4.0 | 11.0 | 0.00 | 0.00 | 0.00 | 40 | 1002.8 |
| 20260504221524 | 69 | 244 | 5.0 | 14.0 | 0.00 | 0.00 | 0.00 | 39 | 1002.7 |
| 20260504221003 | 70 | 234 | 6.0 | 14.0 | 0.00 | 0.00 | 0.00 | 37 | 1002.8 |
| 20260504220503 | 70 | 229 | 6.0 | 15.0 | 0.00 | 0.00 | 0.00 | 36 | 1002.8 |
| 20260504220003 | 71 | 234 | 5.0 | 15.0 | 0.00 | 0.00 | 0.00 | 36 | 1002.9 |
| 20260504215503 | 71 | 229 | 5.0 | 11.0 | 0.00 | 0.00 | 0.00 | 37 | 1002.8 |
| 20260504215003 | 71 | 219 | 5.0 | 12.0 | 0.00 | 0.00 | 0.00 | 37 | 1002.8 |
| 20260504214503 | 71 | 218 | 5.0 | 14.0 | 0.00 | 0.00 | 0.00 | 37 | 1002.7 |
| 20260504214024 | 71 | 212 | 5.0 | 14.0 | 0.00 | 0.00 | 0.00 | 38 | 1002.7 |
| 20260504213503 | 71 | 214 | 5.0 | 14.0 | 0.00 | 0.00 | 0.00 | 37 | 1002.7 |
| 20260504213024 | 71 | 223 | 4.0 | 13.0 | 0.00 | 0.00 | 0.00 | 36 | 1002.7 |
| 20260504212503 | 71 | 217 | 5.0 | 13.0 | 0.00 | 0.00 | 0.00 | 37 | 1002.7 |
| 20260504212003 | 72 | 213 | 5.0 | 12.0 | 0.00 | 0.00 | 0.00 | 37 | 1002.7 |
| 20260504211503 | 71 | 238 | 4.0 | 10.0 | 0.00 | 0.00 | 0.00 | 39 | 1002.8 |
| 20260504211024 | 71 | 238 | 4.0 | 13.0 | 0.00 | 0.00 | 0.00 | 39 | 1002.8 |
| 20260504210503 | 71 | 222 | 4.0 | 13.0 | 0.00 | 0.00 | 0.00 | 37 | 1002.7 |
| 20260504210024 | 72 | 239 | 6.0 | 13.0 | 0.00 | 0.00 | 0.00 | 37 | 1002.8 |
| 20260504205503 | 72 | 249 | 6.0 | 13.0 | 0.00 | 0.00 | 0.00 | 35 | 1002.9 |
| 20260504205003 | 72 | 240 | 7.0 | 17.0 | 0.00 | 0.00 | 0.00 | 37 | 1002.7 |
| 20260504204503 | 72 | 231 | 6.0 | 17.0 | 0.00 | 0.00 | 0.00 | 38 | 1002.9 |
| 20260504204003 | 73 | 229 | 6.0 | 14.0 | 0.00 | 0.00 | 0.00 | 37 | 1002.8 |
| 20260504203524 | 73 | 231 | 6.0 | 14.0 | 0.00 | 0.00 | 0.00 | 37 | 1002.9 |
| 20260504203003 | 73 | 231 | 5.0 | 13.0 | 0.00 | 0.00 | 0.00 | 39 | 1002.9 |
| 20260504202503 | 73 | 230 | 5.0 | 13.0 | 0.00 | 0.00 | 0.00 | 37 | 1003.0 |
| 20260504202004 | 73 | 242 | 6.0 | 13.0 | 0.00 | 0.00 | 0.00 | 38 | 1003.1 |
| 20260504201503 | 72 | 240 | 7.0 | 16.0 | 0.00 | 0.00 | 0.00 | 38 | 1003.1 |
| 20260504201024 | 72 | 228 | 5.0 | 16.0 | 0.00 | 0.00 | 0.00 | 38 | 1003.2 |
| 20260504200503 | 72 | 214 | 3.0 | 12.0 | 0.00 | 0.00 | 0.00 | 42 | 1003.2 |
| 20260504200003 | 72 | 218 | 4.0 | 11.0 | 0.00 | 0.00 | 0.00 | 42 | 1003.3 |
| 20260504195503 | 71 | 223 | 4.0 | 11.0 | 0.00 | 0.00 | 0.00 | 42 | 1003.3 |
| 20260504195024 | 71 | 230 | 5.0 | 11.0 | 0.00 | 0.00 | 0.00 | 42 | 1003.3 |
| 20260504194524 | 71 | 234 | 6.0 | 13.0 | 0.00 | 0.00 | 0.00 | 43 | 1003.4 |
| 20260504194003 | 71 | 245 | 5.0 | 13.0 | 0.00 | 0.00 | 0.00 | 43 | 1003.6 |
| 20260504193503 | 71 | 237 | 5.0 | 12.0 | 0.00 | 0.00 | 0.00 | 43 | 1003.6 |
| 20260504193024 | 71 | 230 | 5.0 | 13.0 | 0.00 | 0.00 | 0.00 | 45 | 1003.7 |
| 20260504192503 | 70 | 237 | 6.0 | 13.0 | 0.00 | 0.00 | 0.00 | 44 | 1003.9 |
| 20260504192003 | 70 | 230 | 6.0 | 12.0 | 0.00 | 0.00 | 0.00 | 44 | 1003.9 |
| 20260504191524 | 70 | 231 | 6.0 | 13.0 | 0.00 | 0.00 | 0.00 | 43 | 1004.0 |
| 20260504191003 | 70 | 238 | 6.0 | 14.0 | 0.00 | 0.00 | 0.00 | 43 | 1004.1 |
| 20260504190504 | 70 | 235 | 6.0 | 14.0 | 0.00 | 0.00 | 0.00 | 44 | 1004.1 |
| 20260504190003 | 70 | 232 | 6.0 | 14.0 | 0.00 | 0.00 | 0.00 | 45 | 1004.1 |
| 20260504185503 | 69 | 234 | 7.0 | 14.0 | 0.00 | 0.00 | 0.00 | 46 | 1004.2 |
| 20260504185003 | 69 | 234 | 6.0 | 13.0 | 0.00 | 0.00 | 0.00 | 45 | 1004.2 |
| 20260504184503 | 70 | 224 | 5.0 | 13.0 | 0.00 | 0.00 | 0.00 | 45 | 1004.2 |
| 20260504184024 | 69 | 220 | 5.0 | 13.0 | 0.00 | 0.00 | 0.00 | 47 | 1004.4 |
| 20260504183503 | 70 | 236 | 5.0 | 11.0 | 0.00 | 0.00 | 0.00 | 45 | 1004.3 |
| 20260504183003 | 69 | 248 | 6.0 | 14.0 | 0.00 | 0.00 | 0.00 | 48 | 1004.4 |
| 20260504182503 | 68 | 241 | 6.0 | 14.0 | 0.00 | 0.00 | 0.00 | 47 | 1004.4 |
| 20260504182024 | 68 | 232 | 6.0 | 14.0 | 0.00 | 0.00 | 0.00 | 46 | 1004.6 |
| 20260504181503 | 68 | 235 | 6.0 | 14.0 | 0.00 | 0.00 | 0.00 | 47 | 1004.8 |
| 20260504181024 | 68 | 226 | 6.0 | 11.0 | 0.00 | 0.00 | 0.00 | 48 | 1004.9 |
| 20260504180503 | 67 | 225 | 6.0 | 13.0 | 0.00 | 0.00 | 0.00 | 48 | 1005.0 |
| 20260504180003 | 67 | 237 | 6.0 | 13.0 | 0.00 | 0.00 | 0.00 | 48 | 1005.1 |
| 20260504175503 | 67 | 250 | 6.0 | 13.0 | 0.00 | 0.00 | 0.00 | 48 | 1005.3 |
| 20260504175024 | 67 | 258 | 7.0 | 13.0 | 0.00 | 0.00 | 0.00 | 49 | 1005.2 |
| 20260504174524 | 67 | 244 | 7.0 | 13.0 | 0.00 | 0.00 | 0.00 | 47 | 1005.3 |
| 20260504174003 | 67 | 230 | 6.0 | 13.0 | 0.00 | 0.00 | 0.00 | 49 | 1005.3 |
| 20260504173524 | 67 | 244 | 5.0 | 13.0 | 0.00 | 0.00 | 0.00 | 49 | 1005.2 |
| 20260504173024 | 67 | 242 | 5.0 | 11.0 | 0.00 | 0.00 | 0.00 | 47 | 1005.2 |
| 20260504172524 | 67 | 241 | 5.0 | 17.0 | 0.00 | 0.00 | 0.00 | 51 | 1005.2 |
| 20260504172024 | 66 | 253 | 7.0 | 17.0 | 0.00 | 0.00 | 0.00 | 49 | 1005.2 |
| 20260504171503 | 66 | 249 | 7.0 | 15.0 | 0.00 | 0.00 | 0.00 | 51 | 1005.2 |
| 20260504171003 | 66 | 240 | 7.0 | 15.0 | 0.00 | 0.00 | 0.00 | 49 | 1005.3 |
| 20260504170503 | 66 | 245 | 7.0 | 13.0 | 0.00 | 0.00 | 0.00 | 50 | 1005.3 |
| 20260504151003 | 62 | 238 | 9.0 | 18.0 | 0.00 | 0.00 | 0.00 | 50 | 1006.5 |
| 20260504150524 | 62 | 236 | 8.0 | 18.0 | 0.00 | 0.00 | 0.00 | 50 | 1006.4 |
| 20260504141003 | 61 | 231 | 8.0 | 20.0 | 0.00 | 0.00 | 0.00 | 52 | 1006.3 |
| 20260504140524 | 61 | 228 | 7.0 | 15.0 | 0.00 | 0.00 | 0.00 | 52 | 1006.3 |